Temp
63 52 48 54 59 61 61 58 56 62 67 62 59 60 66 69 66 64 66 68 68 69 71 69 69 68 68 67 67 68 68 68 68 70 68 67 73 73 73 75 77 77 75 75
56 50 62 67 66 63 60 55 53 61 66 64 61 60 63 66 64 65 66 66 67 68 67 70 67 67 66 65 66 67 67 66 67 69 73 70 67 68 73 73 75 76 77 75
53 60 70 68 63 60 56 53 54 55 62 64 60 55 58 64 65 69 70 68 67 68 66 67 67 65 66 65 66 65 66 66 66 68 68 69 69 69 69 70 71 72 75 76
58 66 66 62 60 60 50 62 62 60 53 42 56 42 52 59 61 66 70 71 66 67 69 67 66 64 64 65 68 67 65 66 67 68 66 66 68 66 68 70 71 72 75 75
56 60 59 59 60 64 56 64 59 57 50 45 50 40 49 57 57 62 65 70 66 68 69 68 65 66 66 67 65 65 66 66 66 68 65 64 65 66 68 68 68 70 71 73
59 68 64 62 67 66 66 58 54 51 45 38 47 44 47 53 57 63 69 69 72 65 65 68 68 67 66 67 67 66 65 65 65 65 65 63 64 65 65 66 65 66 68 70
58 60 66 69 59 63 58 43 32 30 32 35 51 47 47 55 61 66 68 66 65 66 66 66 64 63 65 65 65 65 65 64 67 65 64 66 66 65 64 64 65 65 66 67
47 44 59 68 63 54 53 48 39 27 26 34 49 40 45 62 65 69 69 64 65 65 66 66 66 66 64 64 64 65 64 64 66 67 65 65 66 65 64 65 64 64 66 67
46 48 63 67 64 59 51 45 48 43 39 32 38 48 55 61 62 64 65 65 62 63 64 64 64 64 66 66 65 64 65 66 67 65 64 64 64 63 63 63 63 64 66 70
52 43 58 62 65 60 55 56 38 38 26 24 36 39 41 51 55 62 63 58 59 62 63 63 63 64 64 64 64 64 64 65 66 66 66 65 64 64 63 63 62 62 64 66
54 46 48 54 50 47 46 45 44 42 37 27 28 34 52 48 54 54 59 64 59 60 62 64 65 66 66 65 64 64 63 64 64 65 65 65 65 65 64 63 64 63 63 64
53 48 39 46 55 60 54 45 43 32 30 37 34 36 57 51 54 55 57 62 63 62 62 63 63 64 65 65 65 65 64 64 65 65 66 65 65 65 64 62 62 63 63 65
50 40 32 37 45 48 42 45 43 41 38 31 31 32 58 58 55 57 56 58 60 62 61 61 64 64 64 64 65 66 65 65 66 65 64 63 63 62 62 63 62 63 63 64
55 43 38 31 39 44 40 42 44 40 32 33 36 38 46 50 55 58 59 59 59 59 61 60 62 66 64 65 66 66 65 65 66 66 64 62 61 61 61 61 61 62 64 64
44 35 38 42 46 47 47 47 48 41 42 34 41 42 46 49 53 55 56 59 61 61 65 63 64 64 62 62 61 63 63 63 63 63 62 62 61 61 61 60 60 60 61 64
45 33 37 38 44 46 44 48 48 47 46 44 44 42 53 50 51 51 54 59 62 62 64 64 61 60 56 62 61 63 62 62 63 62 62 63 62 62 60 60 60 59 59 60
39 35 34 31 43 42 33 42 43 45 48 44 41 43 48 46 47 46 48 53 53 59 59 59 60 60 58 62 62 60 61 61 61 60 62 62 62 62 61 61 59 59 57 57
39 36 33 26 34 22 42 50 47 41 48 46 44 49 50 47 48 49 51 50 51 54 58 58 57 57 58 59 59 60 60 60 60 59 60 61 60 60 61 60 60 56 54 55
44 38 28 28 24 37 44 44 43 40 40 47 47 50 51 52 53 52 56 55 53 54 57 58 60 60 60 61 60 60 58 58 57 57 57 58 59 58 59 59 59 61 60 60
46 40 31 27 22 23 36 47 51 49 33 46 49 47 47 47 37 43 54 56 56 57 58 58 59 60 59 60 61 59 55 54 54 55 56 57 57 57 57 58 58 59 59 59
36 33 27 32 30 34 44 46 50 34 34 47 49 46 45 41 43 49 54 54 56 56 57 59 58 57 58 57 55 53 53 52 54 56 56 57 57 57 57 57 58 57 57 58
34 32 32 33 28 26 46 47 38 42 44 45 45 45 44 46 49 50 50 50 51 52 54 56 54 55 56 57 56 54 52 55 57 57 55 56 57 57 58 55 55 55 55 55
33 37 30 37 32 44 49 46 48 47 44 43 44 46 47 47 48 49 47 48 49 50 51 53 52 53 54 54 54 52 54 56 55 55 53 53 54 54 56 53 52 53 54 54
44 46 40 38 44 41 46 45 46 45 43 45 46 46 47 43 47 44 44 45 46 48 48 50 50 50 50 52 53 53 55 57 55 53 51 51 51 51 52 53 53 53 53 53
41 42 36 38 42 41 48 44 43 43 46 47 49 48 45 46 45 43 42 43 44 45 48 48 47 47 48 51 51 53 54 54 51 50 50 50 50 50 50 50 52 54 56 55
42 35 34 32 40 40 40 44 45 44 43 45 44 46 47 45 43 43 43 42 42 42 44 45 45 46 48 50 50 52 54 52 50 48 49 50 50 51 52 51 51 42 45 46
MSLP
1007.19 1007.75 1007.77 1007.54 1007.24 1007.08 1006.86 1006.49 1005.94 1005.02 1004.43 1004.30 1003.83 1003.30 1002.29 1002.07 1002.38 1002.89 1003.28 1003.56 1003.71 1004.18 1004.68 1005.28 1006.09 1006.86 1007.50 1008.04 1008.23 1008.21 1008.26 1008.79 1008.68 1008.06 1009.38 1010.28 1009.68 1009.75 1009.17 1009.17 1009.47 1009.43 1009.93 1009.84
1007.53 1007.26 1006.53 1006.27 1006.01 1006.05 1006.06 1005.99 1005.80 1005.12 1004.59 1004.51 1003.95 1003.40 1002.50 1002.08 1002.05 1002.36 1002.84 1003.45 1003.62 1004.16 1005.02 1005.68 1006.27 1007.11 1007.70 1008.06 1008.64 1009.14 1009.21 1009.24 1009.49 1009.54 1008.02 1009.44 1010.66 1010.26 1010.06 1009.42 1009.31 1009.07 1009.49 1009.28
1007.00 1006.24 1005.58 1005.43 1005.34 1005.48 1005.74 1006.03 1005.92 1005.72 1005.25 1004.78 1004.52 1003.93 1003.05 1002.22 1001.93 1001.95 1002.18 1002.74 1003.34 1003.34 1004.31 1005.19 1005.78 1006.53 1007.41 1008.02 1008.42 1009.12 1009.39 1009.58 1009.71 1010.13 1009.94 1008.66 1009.12 1010.08 1010.68 1010.08 1008.92 1009.33 1008.72 1008.74
1006.36 1005.56 1005.34 1005.08 1005.01 1005.04 1005.37 1005.74 1005.89 1005.95 1006.03 1006.10 1005.34 1005.00 1003.99 1003.01 1002.48 1002.22 1002.09 1002.15 1002.62 1002.89 1003.33 1004.19 1005.22 1006.10 1006.78 1007.49 1007.94 1008.59 1009.17 1009.63 1009.96 1010.03 1009.70 1009.89 1008.84 1009.52 1010.64 1010.81 1009.44 1008.37 1008.10 1008.53
1006.16 1005.69 1005.35 1004.98 1004.49 1004.73 1005.21 1005.58 1006.08 1006.40 1006.81 1006.85 1006.06 1006.15 1004.24 1003.52 1002.88 1002.20 1001.76 1001.29 1001.50 1001.87 1002.48 1003.59 1004.72 1005.57 1006.52 1007.10 1007.68 1008.26 1008.78 1009.06 1009.31 1009.36 1009.19 1009.13 1009.33 1008.84 1008.80 1009.39 1009.06 1008.78 1007.23 1006.91
1005.83 1005.22 1005.06 1004.43 1004.24 1004.44 1004.96 1005.74 1006.41 1007.00 1007.83 1007.83 1006.64 1006.47 1005.04 1003.94 1003.16 1002.07 1001.10 1000.63 1000.39 1001.36 1002.24 1003.38 1004.44 1005.40 1006.25 1006.67 1007.13 1007.76 1008.26 1008.62 1008.98 1009.30 1009.35 1009.40 1009.55 1009.40 1009.20 1008.85 1008.25 1008.69 1008.06 1007.79
1005.21 1004.71 1004.12 1003.92 1003.87 1004.12 1004.93 1006.32 1007.86 1008.44 1008.96 1007.94 1006.92 1006.12 1004.71 1003.71 1002.79 1001.64 1000.25 1000.05 1000.30 1001.10 1002.17 1003.26 1004.59 1005.53 1005.86 1006.24 1006.70 1007.14 1007.50 1007.87 1008.17 1008.65 1008.79 1008.98 1009.22 1009.41 1008.39 1008.84 1008.67 1009.06 1009.13 1008.24
1004.48 1004.16 1003.88 1003.17 1003.33 1003.71 1004.94 1006.20 1007.81 1008.77 1009.45 1008.38 1007.01 1006.16 1004.32 1003.00 1001.99 1001.29 1000.36 999.68 1000.28 1001.36 1002.26 1003.24 1004.06 1004.65 1005.24 1005.84 1006.26 1006.66 1007.10 1007.44 1007.56 1007.82 1007.94 1008.04 1008.16 1008.12 1007.99 1008.21 1008.38 1008.47 1008.39 1007.83
1004.28 1003.71 1003.56 1003.39 1003.34 1004.21 1005.04 1006.04 1007.22 1008.47 1010.14 1009.82 1007.94 1006.12 1004.09 1002.82 1002.32 1002.51 1000.92 1001.16 1001.40 1001.71 1002.47 1003.03 1003.71 1004.23 1004.66 1005.23 1005.72 1006.02 1006.43 1006.72 1006.90 1007.07 1007.27 1007.61 1007.65 1007.89 1008.04 1007.98 1007.87 1007.44 1007.25 1006.91
1004.08 1003.72 1003.98 1003.83 1003.87 1004.27 1005.12 1006.56 1008.06 1009.44 1011.12 1010.24 1007.79 1006.36 1004.46 1003.56 1003.04 1002.74 1002.60 1002.13 1002.11 1002.32 1002.76 1003.10 1003.61 1003.89 1004.21 1004.56 1004.69 1005.03 1005.56 1005.95 1006.12 1006.48 1006.69 1006.85 1007.04 1007.06 1007.33 1007.32 1007.55 1007.36 1007.23 1007.02
1004.49 1005.11 1004.88 1004.82 1005.02 1005.22 1006.02 1006.77 1008.29 1009.84 1010.27 1009.58 1008.42 1005.99 1004.20 1003.80 1003.25 1003.07 1003.93 1003.53 1002.81 1002.74 1003.09 1003.12 1003.30 1003.27 1003.50 1003.76 1004.09 1004.42 1004.82 1005.28 1005.64 1005.78 1005.95 1006.22 1006.50 1006.45 1006.69 1006.78 1006.80 1006.76 1006.96 1006.70
1004.90 1005.61 1006.02 1005.90 1005.78 1005.84 1006.64 1007.75 1009.73 1011.44 1011.05 1009.86 1008.89 1005.52 1004.81 1004.24 1003.59 1003.35 1003.65 1003.04 1004.20 1004.42 1003.97 1003.29 1003.27 1003.22 1003.30 1003.46 1003.63 1003.94 1004.08 1004.34 1004.54 1004.75 1005.04 1005.28 1005.54 1005.69 1006.11 1006.23 1006.21 1006.31 1006.44 1006.24
1006.38 1006.60 1007.20 1006.68 1006.72 1006.96 1007.84 1008.87 1009.91 1011.18 1011.71 1010.66 1009.72 1006.92 1005.72 1004.66 1003.96 1003.76 1004.02 1003.82 1004.25 1004.32 1004.40 1003.72 1004.00 1003.33 1003.07 1003.04 1003.06 1003.19 1003.20 1003.46 1003.52 1003.82 1004.24 1004.58 1004.80 1005.15 1005.38 1005.60 1005.65 1005.71 1005.82 1006.00
1006.94 1008.45 1009.23 1009.16 1008.41 1008.18 1008.22 1008.55 1009.19 1009.76 1010.87 1009.28 1008.52 1007.11 1006.31 1005.94 1004.12 1003.84 1003.80 1004.21 1004.52 1004.60 1004.54 1004.04 1004.03 1003.96 1003.30 1002.63 1002.63 1002.65 1002.52 1002.54 1002.89 1003.17 1003.43 1003.70 1003.94 1004.29 1004.62 1004.80 1004.98 1005.10 1005.05 1005.26
1008.33 1009.60 1009.80 1009.72 1009.28 1008.80 1007.89 1007.66 1007.86 1008.57 1008.65 1008.78 1007.08 1006.65 1005.93 1005.46 1005.24 1003.98 1003.56 1003.62 1003.33 1003.52 1004.04 1003.75 1003.60 1003.63 1003.81 1003.21 1002.73 1002.77 1002.68 1002.62 1002.81 1002.87 1003.26 1003.60 1003.72 1003.96 1004.05 1004.17 1004.22 1004.22 1004.22 1004.21
1009.38 1010.14 1010.48 1010.18 1009.60 1008.73 1007.74 1007.14 1007.09 1006.87 1007.17 1007.33 1006.85 1006.10 1005.88 1005.58 1005.82 1005.30 1005.20 1004.51 1003.22 1003.08 1003.01 1003.22 1003.70 1004.06 1004.97 1003.76 1002.54 1002.39 1002.73 1002.46 1002.28 1002.38 1002.45 1002.55 1002.87 1003.24 1003.26 1003.17 1003.18 1003.38 1003.47 1003.49
1009.95 1010.38 1010.61 1010.06 1009.60 1008.72 1007.76 1007.09 1006.97 1006.37 1005.76 1006.47 1006.58 1006.82 1006.36 1006.30 1006.21 1005.79 1005.18 1005.04 1005.13 1004.40 1003.78 1003.69 1003.40 1003.18 1002.98 1002.80 1002.36 1001.95 1002.10 1001.82 1001.80 1001.96 1001.90 1002.03 1002.17 1002.26 1002.42 1002.57 1002.65 1002.58 1002.47 1002.66
1009.46 1010.26 1010.62 1010.44 1010.11 1009.04 1007.22 1006.80 1007.15 1007.30 1006.51 1007.13 1006.73 1006.47 1006.43 1006.17 1005.88 1005.74 1005.95 1005.20 1005.68 1005.74 1004.47 1003.63 1003.02 1002.78 1002.59 1002.28 1001.94 1001.46 1001.22 1001.20 1001.09 1001.12 1001.15 1001.24 1001.45 1001.64 1001.79 1001.85 1001.87 1002.00 1001.99 1001.77
1009.10 1009.95 1010.76 1011.13 1010.60 1009.04 1007.43 1007.59 1007.54 1007.27 1007.51 1007.56 1007.20 1007.05 1006.69 1006.13 1005.67 1005.54 1005.24 1005.25 1005.27 1005.33 1004.28 1003.59 1002.97 1002.44 1002.00 1001.73 1001.27 1000.90 1000.76 1000.35 1000.37 1000.48 1000.55 1000.62 1000.77 1000.88 1000.98 1000.96 1000.87 1000.72 1000.78 1000.63
1009.17 1010.04 1010.94 1011.22 1011.01 1009.70 1008.52 1008.06 1007.72 1007.27 1007.63 1007.86 1007.37 1007.08 1006.88 1006.37 1006.08 1005.68 1005.29 1005.00 1004.70 1004.14 1003.44 1002.85 1002.22 1001.70 1001.31 1000.86 1000.38 1000.24 1000.09 1000.04 999.98 1000.04 1000.01 1000.00 1000.05 1000.07 999.91 999.76 999.69 999.71 999.67 999.34
1009.78 1010.88 1011.29 1011.44 1011.08 1009.81 1009.11 1008.48 1007.68 1008.10 1009.22 1008.27 1008.10 1007.85 1007.46 1007.16 1006.78 1005.83 1005.07 1004.56 1004.28 1003.91 1003.25 1002.63 1002.17 1001.80 1001.25 1000.64 1000.40 1000.15 999.92 999.71 999.56 999.38 999.25 999.08 998.96 998.63 998.32 998.26 998.38 998.45 998.38 998.25
1009.69 1010.34 1010.94 1011.14 1010.77 1010.33 1009.75 1009.24 1009.32 1009.61 1009.06 1008.97 1008.75 1008.48 1008.02 1007.34 1006.49 1005.83 1005.46 1005.02 1004.50 1003.74 1002.96 1002.54 1001.99 1001.34 1000.95 1000.54 1000.16 999.65 999.27 998.99 998.67 998.28 997.90 997.63 997.42 997.20 997.01 997.08 997.15 997.21 997.14 997.02
1009.80 1010.32 1010.82 1010.74 1010.11 1010.11 1009.77 1010.03 1010.11 1009.82 1009.59 1009.35 1009.09 1008.50 1007.90 1007.08 1006.40 1005.68 1005.36 1004.91 1004.16 1003.52 1002.61 1002.02 1001.48 1000.65 1000.19 1000.03 999.88 998.95 998.10 997.85 997.30 996.80 996.28 995.96 995.75 995.69 995.60 995.67 995.79 995.85 995.82 995.66
1010.01 1010.16 1010.43 1010.70 1009.75 1010.20 1010.10 1010.28 1010.28 1010.29 1010.00 1009.46 1008.77 1008.14 1007.68 1007.05 1006.48 1006.02 1005.38 1004.52 1003.64 1002.90 1002.17 1001.48 1000.75 1000.00 999.68 999.42 998.76 998.02 997.27 996.58 995.87 995.20 994.71 994.44 994.22 993.76 993.62 993.60 993.49 993.70 994.12 994.33
1010.78 1010.60 1011.31 1010.94 1010.30 1010.46 1009.52 1010.46 1010.76 1010.10 1009.59 1008.80 1008.12 1007.66 1007.20 1006.49 1005.92 1005.61 1004.90 1003.96 1003.32 1002.45 1001.78 1001.14 1000.30 999.73 998.99 998.22 997.68 997.24 996.38 995.63 994.74 993.99 993.36 992.67 991.84 991.26 990.72 990.96 991.76 992.04 992.30 992.69
1011.42 1011.71 1011.99 1011.72 1011.66 1011.80 1010.98 1010.78 1010.69 1010.06 1009.36 1008.75 1007.95 1006.90 1006.49 1006.20 1005.68 1005.01 1003.68 1003.19 1002.88 1002.21 1001.55 1000.70 1000.05 999.30 998.19 997.39 996.67 996.29 995.26 994.68 993.83 992.56 991.62 990.62 989.54 988.24 987.02 987.19 989.10 990.39 990.64 991.04
Wind_Speed
9 4 6 13 12 13 15 15 16 12 10 8 8 9 14 10 4 4 6 8 8 10 7 10 9 8 8 5 5 3 5 3 2 2 4 5 3 3 3 4 6 6 6 7
6 9 14 17 11 10 12 7 8 14 14 15 14 14 9 4 4 5 7 6 10 8 10 14 12 8 7 8 6 3 3 1 4 5 5 6 3 3 4 2 3 4 7 7
8 10 12 13 10 8 6 7 7 10 15 17 14 13 9 5 2 6 10 8 9 16 15 14 14 12 10 9 9 7 5 3 3 5 5 2 4 3 5 5 4 6 7 7
9 6 10 11 13 4 4 8 14 13 8 5 5 11 9 7 7 10 17 18 11 11 13 15 14 11 10 8 8 8 8 5 5 5 3 4 3 7 5 5 4 5 4 2
10 11 11 14 8 6 8 11 8 6 10 6 10 4 9 6 10 16 11 19 13 14 16 17 13 13 9 9 8 8 9 6 4 2 2 3 3 1 2 3 5 7 3 4
12 13 11 10 17 8 6 6 6 5 4 10 13 6 15 13 12 17 23 13 18 11 11 16 14 11 9 9 9 8 9 7 8 6 6 5 6 6 3 4 3 4 4 5
14 15 15 19 18 12 7 2 5 5 4 13 14 12 12 8 11 15 22 11 10 15 16 15 12 10 9 9 9 8 9 8 7 8 8 7 7 7 5 5 3 5 5 4
10 11 10 14 9 10 8 10 7 5 5 6 12 6 9 10 12 18 5 9 10 15 15 14 13 12 9 9 10 9 9 8 8 8 8 7 7 4 3 4 4 5 4 4
7 10 8 14 2 3 6 8 4 5 2 3 4 12 10 6 8 21 3 8 8 9 11 11 9 9 9 9 10 11 11 11 11 9 7 8 6 7 6 7 6 4 6 5
6 13 3 9 11 4 8 9 3 3 6 6 7 5 6 2 4 17 6 3 6 7 8 6 7 8 7 8 9 9 10 11 11 9 8 7 8 7 6 5 6 6 6 5
5 5 7 4 3 5 5 6 3 4 4 5 6 7 2 1 4 7 7 11 4 6 6 5 5 8 9 8 8 9 8 8 8 8 7 7 7 7 6 4 5 5 6 6
4 3 6 8 9 13 2 4 4 3 6 3 2 12 7 3 5 3 1 5 12 15 9 6 8 7 7 8 8 9 9 9 9 9 9 9 9 7 7 6 6 5 7 8
5 3 4 7 6 4 6 4 7 5 4 7 5 6 9 1 4 6 5 8 10 9 12 5 13 7 6 8 8 8 8 9 9 8 8 8 8 9 9 8 8 7 6 6
7 4 5 6 11 12 3 4 7 8 5 4 7 10 16 18 9 9 10 12 6 5 9 5 6 18 9 7 7 6 7 8 8 8 9 9 9 9 9 8 8 8 7 7
5 1 3 9 14 18 16 14 13 17 14 9 15 14 12 7 9 15 11 8 7 6 20 7 9 14 11 9 3 3 2 2 1 0 2 4 6 7 8 8 9 8 8 8
2 4 2 6 16 18 22 14 12 17 17 21 16 20 4 7 8 9 11 15 20 12 8 2 5 6 6 9 3 2 5 5 5 5 6 4 4 6 7 8 9 8 8 8
5 4 3 6 7 11 8 4 10 14 10 3 5 5 5 4 7 8 10 14 18 11 4 7 5 5 7 10 8 6 8 7 6 6 5 5 6 6 7 7 8 10 10 8
7 4 2 3 3 4 6 5 4 12 3 11 1 4 1 4 5 7 2 7 11 15 12 10 7 6 7 7 7 8 7 8 7 7 6 6 6 7 8 10 12 8 6 8
3 2 1 2 3 9 11 6 4 3 6 12 7 7 7 10 9 7 7 3 5 17 10 8 11 11 11 11 9 9 9 8 7 7 7 7 7 10 12 15 16 16 15 14
2 7 4 1 1 4 1 8 9 9 3 12 15 11 10 9 6 5 11 12 13 14 11 11 12 11 10 12 12 12 8 7 6 6 7 8 9 14 17 17 16 14 15 17
1 1 3 4 4 6 6 9 13 5 5 11 9 11 11 7 6 12 13 15 15 15 15 14 12 11 12 9 6 7 7 7 7 8 10 13 14 17 17 15 14 15 16 16
3 2 2 1 2 4 4 3 4 5 7 8 10 11 13 13 14 13 14 16 19 21 20 19 15 14 14 13 13 14 11 10 13 13 15 16 16 13 13 16 14 16 15 16
4 3 2 1 5 7 6 8 7 11 10 12 11 14 15 16 18 15 15 17 17 22 20 17 18 19 16 15 15 18 17 16 16 17 17 15 13 16 18 16 17 14 15 13
5 6 3 6 2 13 8 9 11 13 13 15 14 12 16 17 20 18 19 20 17 19 19 18 19 18 17 14 15 16 17 17 16 17 14 16 18 17 16 14 14 13 12 11
3 4 6 7 4 16 2 14 13 18 17 16 15 17 17 21 17 18 18 19 20 18 17 16 17 17 19 18 18 17 17 18 14 17 19 19 17 19 19 20 15 13 13 13
3 1 1 4 10 10 14 15 17 16 18 20 21 21 20 18 18 21 20 16 17 17 17 17 18 19 20 18 17 16 17 15 17 19 17 16 16 17 19 18 14 9 12 14
Wind_Direction
270 175 235 234 233 235 249 262 274 293 315 329 290 294 252 220 167 231 247 242 238 183 145 121 117 128 114 69 59 110 123 336 319 122 106 330 243 310 243 210 219 209 233 204
259 250 233 244 254 264 284 307 308 315 318 308 297 287 279 220 204 234 257 239 165 160 132 139 133 127 132 143 139 104 92 82 317 320 169 147 256 286 277 210 214 220 226 207
243 272 288 280 279 265 290 300 295 269 280 284 292 294 281 252 277 293 273 222 211 179 163 158 150 153 154 143 143 161 168 183 256 278 311 126 126 9 325 272 224 213 207 203
260 285 302 299 293 301 281 276 283 289 306 254 324 286 293 300 269 250 253 250 217 191 172 163 157 160 157 165 152 150 154 183 223 217 187 284 221 150 195 265 273 206 149 235
280 299 303 296 263 266 265 270 274 326 315 323 289 304 281 284 280 279 266 244 213 195 171 169 154 146 158 147 158 163 169 178 193 211 268 302 289 308 160 245 314 318 353 73
266 271 279 263 283 264 291 317 331 326 306 282 271 244 278 273 274 273 277 263 224 148 124 131 134 136 147 160 166 155 167 181 187 197 213 207 235 246 258 281 309 309 311 296
247 254 249 247 252 248 219 346 312 304 275 253 257 258 244 307 295 282 272 235 137 129 126 132 143 152 169 179 177 176 180 200 203 206 209 218 221 235 198 245 226 249 263 262
258 271 255 279 295 210 225 189 208 250 232 268 310 247 239 255 299 306 324 108 117 125 133 145 161 169 175 184 189 188 179 191 203 211 225 225 243 227 248 248 236 224 235 254
291 285 324 309 334 11 307 257 263 305 31 339 268 284 290 287 5 325 96 127 132 141 151 165 168 158 166 175 183 184 186 200 199 202 205 226 231 223 223 239 251 275 297 300
277 297 270 308 319 228 172 222 300 92 221 231 229 251 250 303 308 216 316 101 113 115 120 133 151 175 193 193 202 190 185 192 197 196 200 207 217 228 234 240 247 248 260 260
16 270 291 345 280 242 295 271 313 310 249 196 274 250 140 10 13 85 94 278 126 147 157 176 220 209 203 209 189 194 193 189 199 203 201 197 203 202 208 220 259 269 263 250
210 245 267 263 268 284 191 187 87 261 277 307 317 260 359 344 322 69 172 29 353 357 332 269 214 208 204 197 195 187 191 185 194 190 188 195 202 201 203 224 245 260 279 270
345 297 325 330 328 72 101 163 168 242 240 214 242 269 324 168 91 60 42 330 306 346 327 6 352 285 228 225 211 197 194 200 201 197 199 208 203 197 202 204 209 231 253 270
91 83 282 253 294 315 253 182 216 148 243 224 234 277 285 295 217 251 224 209 247 246 293 347 334 286 278 226 218 215 209 198 198 198 198 202 204 201 196 203 208 213 215 239
90 351 255 282 276 280 287 291 247 227 228 234 256 256 254 305 301 239 232 204 199 210 261 251 283 263 313 286 55 33 57 49 70 98 269 245 218 208 206 203 209 218 220 227
336 225 174 266 266 277 283 290 301 286 232 240 254 259 339 9 338 2 349 314 247 233 245 260 245 119 233 297 317 308 281 268 256 257 252 235 249 243 224 222 215 209 220 227
244 208 247 275 304 325 302 308 349 339 276 332 288 331 358 7 347 324 341 9 10 319 319 263 281 222 215 233 250 252 256 248 233 230 229 246 257 263 265 248 228 227 222 215
233 255 241 279 345 263 205 87 106 338 342 67 274 31 222 259 252 274 8 57 340 323 324 327 311 311 305 283 272 255 226 222 216 223 230 230 236 249 257 261 261 246 225 228
93 205 153 159 231 277 301 33 345 341 33 16 18 348 355 346 329 313 74 34 294 295 297 301 303 298 296 293 284 277 251 222 212 225 231 232 240 253 256 256 256 259 254 252
36 46 119 357 220 274 167 349 327 294 192 1 349 356 348 343 333 293 316 311 295 282 275 282 282 278 273 271 279 278 245 240 242 239 246 248 252 259 260 258 256 252 250 254
131 24 159 238 254 280 9 340 327 4 336 312 340 346 340 326 285 304 316 328 335 328 318 319 317 312 311 314 318 283 266 257 251 254 255 255 257 256 249 247 250 249 247 246
171 184 165 211 256 298 346 350 358 328 323 3 350 332 316 308 305 316 319 318 316 309 307 304 302 300 302 303 299 292 280 284 274 262 261 258 257 254 254 252 248 245 244 241
38 33 236 90 248 48 345 61 0 2 355 344 327 318 312 313 312 314 321 311 304 301 295 298 296 293 289 291 287 284 282 281 275 274 269 259 255 255 252 244 242 241 239 227
346 47 24 351 82 2 328 14 1 348 325 312 305 321 309 317 308 314 313 302 299 295 293 291 290 290 290 291 290 286 291 289 287 281 271 271 271 260 258 248 228 222 229 222
10 357 343 267 336 342 321 349 334 317 311 307 309 312 310 303 301 301 297 294 293 293 295 296 292 293 292 290 287 285 286 282 289 281 279 270 256 248 239 239 230 227 219 215
345 73 303 265 324 294 290 310 306 306 313 311 310 308 308 317 308 297 284 293 293 295 295 292 291 287 286 288 291 293 287 285 280 280 281 277 275 270 249 217 202 170 208 213